Wichita, KS

7:33 AM CST on February 24, 2017 (GMT -0600)
Col Jabara

Weather History for KAAO - February, 2014

Change the Weather History Date:

Thursday, February 27, 2014

  Actual Average (KIAB) Record (KIAB)
Temperature  
Mean Temperature 32 °F -  
Max Temperature 46 °F 47 °F 73 °F (2016)
Min Temperature 18 °F 27 °F 5 °F (2002)
Degree Days  
Heating Degree Days 33    
Moisture  
Dew Point 14 °F    
Average Humidity 50    
Maximum Humidity 78    
Minimum Humidity 24    
Precipitation  
Precipitation 0.00 in - - ()
Sea Level Pressure  
Sea Level Pressure 29.99 in    
Wind  
Wind Speed 9 mph (ESE)    
Max Wind Speed 15 mph    
Max Gust Speed 22 mph    
Visibility 10 miles    
Events      
Averages and records for this station are not official NWS values.
T = Trace of Precipitation, MM = Missing Value Source: NWS Daily Summary

Daily Weather History Graph

Daily Weather History Graph

Search for Another Location

Airport or City:

Trip Planner

Search our weather history database for the weather conditions in past years. The results will help you decide how hot, cold, wet, or windy it might be!

Date:

Astronomy

Feb. 27, 2014 Rise Set
Actual Time 7:03 AM CST 6:20 PM CST
Civil Twilight 6:36 AM CST 6:46 PM CST
Nautical Twilight 6:06 AM CST 7:17 PM CST
Astronomical Twilight 5:35 AM CST 7:47 PM CST
Moon 5:35 AM CST (2/27) 4:48 PM CST (2/27)
Length of Visible Light 12h 10m
Length of Day
11h 17m
Waning Crescent, 4% of the Moon is Illuminated
Feb 27
Waning Crescent
Mar 1
New
Mar 8
First Quarter
Mar 16
Full
Mar 23
Last Quarter

Hourly Weather History & Observations

Time (CST) Temp. Windchill Dew Point Humidity Pressure Visibility Wind Dir Wind Speed Gust Speed Precip Events Conditions
12:54 AM 24.1 °F 15.2 °F 14.0 °F 65% 30.09 in 10.0 mi West 8.1 mph - N/A   Clear
1:54 AM 23.0 °F 15.8 °F 14.0 °F 68% 30.09 in 10.0 mi West 5.8 mph - N/A   Clear
2:54 AM 21.0 °F 12.4 °F 14.0 °F 74% 30.08 in 10.0 mi NW 6.9 mph - N/A   Clear
3:54 AM 21.9 °F 12.5 °F 14.0 °F 72% 30.08 in 10.0 mi NW 8.1 mph - N/A   Clear
4:54 AM 21.9 °F 12.5 °F 14.0 °F 72% 30.09 in 10.0 mi NW 8.1 mph - N/A   Clear
5:54 AM 19.0 °F 9.0 °F 12.0 °F 74% 30.10 in 10.0 mi NNW 8.1 mph - N/A   Clear
6:54 AM 18.0 °F 11.1 °F 12.0 °F 78% 30.11 in 10.0 mi NNE 4.6 mph - N/A   Clear
7:54 AM 21.0 °F 11.4 °F 14.0 °F 74% 30.10 in 10.0 mi NNE 8.1 mph - N/A   Clear
8:54 AM 26.1 °F 15.6 °F 16.0 °F 66% 30.12 in 10.0 mi ENE 11.5 mph - N/A   Clear
9:54 AM 32.0 °F 23.6 °F 18.0 °F 56% 30.11 in 10.0 mi East 10.4 mph - N/A   Clear
10:54 AM 36.0 °F 27.5 °F 17.1 °F 46% 30.08 in 10.0 mi East 12.7 mph - N/A   Clear
11:54 AM 39.9 °F 32.5 °F 16.0 °F 38% 30.06 in 10.0 mi East 12.7 mph - N/A   Clear
12:54 PM 42.1 °F 36.1 °F 15.1 °F 34% 30.02 in 10.0 mi SE 10.4 mph - N/A   Clear
1:54 PM 44.1 °F 38.1 °F 14.0 °F 30% 29.98 in 10.0 mi SE 11.5 mph - N/A   Clear
2:54 PM 45.0 °F 38.5 °F 12.0 °F 26% 29.93 in 10.0 mi SE 13.8 mph 21.9 mph N/A   Clear
3:54 PM 46.9 °F - 12.0 °F 24% 29.89 in 10.0 mi SE 15.0 mph - N/A   Clear
4:54 PM 46.0 °F 41.0 °F 12.0 °F 25% 29.89 in 10.0 mi SE 10.4 mph - N/A   Clear
5:54 PM 42.1 °F 36.1 °F 12.9 °F 31% 29.89 in 10.0 mi SE 10.4 mph - N/A   Clear
6:54 PM 37.0 °F 31.0 °F 14.0 °F 39% 29.87 in 10.0 mi ESE 8.1 mph - N/A   Clear
7:54 PM 37.9 °F 30.5 °F 12.9 °F 36% 29.86 in 10.0 mi ESE 11.5 mph - N/A   Clear
8:54 PM 36.0 °F 28.5 °F 12.9 °F 39% 29.85 in 10.0 mi ESE 10.4 mph - N/A   Clear
9:54 PM 34.0 °F 26.0 °F 14.0 °F 44% 29.84 in 10.0 mi ESE 10.4 mph - N/A   Clear
10:54 PM 35.1 °F 26.9 °F 14.0 °F 42% 29.82 in 10.0 mi ESE 11.5 mph - N/A   Clear
11:54 PM 34.0 °F 26.6 °F 15.1 °F 46% 29.80 in 10.0 mi SE 9.2 mph - N/A   Clear